Regional Weather Roundup
Issued by NWS Charleston, WV

Home | Current Version | Previous Version | Graphics & Text | Print | Product List | Glossary Off
Versions: 1 2 3 4 5 6 7 8 9 10 11 12 13 14 15 16 17 18 19 20 21 22 23 24 25 26 27 28 29 30 31 32 33 34 35 36 37 38 39 40 41 42 43 44 45 46 47 48 49 50

000
ASUS41 KRLX 290510
RWRRLX
West Virginia Regional Weather Roundup
National Weather Service Charleston WV
100 AM EDT MON MAY 29 2017

Note: "fair" indicates few or no clouds below 12,000 feet with no
significant weather and/or obstructions to visibility.

WVZ003-290600-
Northern Panhandle of West Virginia

CITY           SKY/WX    TMP DP  RH WIND       PRES   REMARKS
WHEELING       CLOUDY    68  61  78 SW9       29.77F
$$

WVZ009-290600-
Northwest West Virginia

CITY           SKY/WX    TMP DP  RH WIND       PRES   REMARKS
PARKERSBURG    CLOUDY    69  63  81 SW5       29.83R
$$

WVZ006-290600-
Western West Virginia

CITY           SKY/WX    TMP DP  RH WIND       PRES   REMARKS
HUNTINGTON     MOCLDY    68  61  78 SW7       29.85S
$$

WVZ015-290600-
West Central West Virginia

CITY           SKY/WX    TMP DP  RH WIND       PRES   REMARKS
CHARLESTON     CLOUDY    70  60  70 SW12      29.85S
$$

WVZ022-031-290600-
North Central West Virginia

CITY           SKY/WX    TMP DP  RH WIND       PRES   REMARKS
CLARKSBURG     CLOUDY    66  61  84 S7        29.83S
MORGANTOWN     CLOUDY    68  61  78 S7        29.82F
$$

WVZ025-035-042-045-290600-
Southern West Virginia

CITY           SKY/WX    TMP DP  RH WIND       PRES   REMARKS
BECKLEY        CLOUDY    64  59  83 W7        29.93R
LOGAN          CLOUDY    68  61  77 CALM      29.89S
BLUEFIELD      CLOUDY    62  56  80 W7        29.96R
LEWISBURG      CLOUDY    64  58  82 CALM      29.92R
$$

WVZ047-290600-
Northern Mountains of West Virginia

CITY           SKY/WX    TMP DP  RH WIND       PRES   REMARKS
ELKINS         CLOUDY    63  60  90 CALM      29.88S
$$

WVZ052-290600-
Eastern Panhandle of West Virginia

CITY           SKY/WX    TMP DP  RH WIND       PRES   REMARKS
MARTINSBURG    CLOUDY    64  62  93 CALM      29.80F FOG
PETERSBURG     CLOUDY    66  65  98 CALM      29.83S
$$



USA.gov is the U.S. government's official web portal to all federal, state and local government web resources and services.